Sarajevo, Bosnia and Herzegovina

9:48 AM CET on January 21, 2018 (GMT +0100)
Sarajevo

Weather History for LQSA - May, 2013

Change the Weather History Date:

Wednesday, May 22, 2013

  Actual Average Record
Temperature  
Mean Temperature 62 °F -  
Max Temperature 68 °F - - ()
Min Temperature 55 °F - - ()
Degree Days  
Heating Degree Days 4    
Growing Degree Days 12 (Base 50)    
Moisture  
Dew Point 54 °F    
Average Humidity 77    
Maximum Humidity 100    
Minimum Humidity 64    
Precipitation  
Precipitation 0.00 in - - ()
Sea Level Pressure  
Sea Level Pressure 29.76 in    
Wind  
Wind Speed 4 mph ()    
Max Wind Speed 12 mph    
Max Gust Speed -    
Visibility 5.9 miles    
Events Rain    
T = Trace of Precipitation, MM = Missing Value Source: Averaged Metar Reports

Daily Weather History Graph

Daily Weather History Graph

Search for Another Location

Airport or City:

Trip Planner

Search our weather history database for the weather conditions in past years. The results will help you decide how hot, cold, wet, or windy it might be!

Date:

Astronomy

May. 22, 2013 Rise Set
Actual Time 5:14 AM CEST 8:12 PM CEST
Civil Twilight 4:40 AM CEST 8:47 PM CEST
Nautical Twilight 3:56 AM CEST 9:30 PM CEST
Astronomical Twilight 3:05 AM CEST 10:22 PM CEST
Moon 5:09 PM CEST (5/22) 3:13 AM CEST (5/22)
Length of Visible Light 16h 06m
Length of Day
14h 58m
Waxing Gibbous, 89% of the Moon is Illuminated
May 22
Waxing Gibbous
May 25
Full
May 31
Last Quarter
Jun 8
New
Jun 16
First Quarter

Hourly Weather History & Observations

Time (CEST) Temp. Dew Point Humidity Pressure Visibility Wind Dir Wind Speed Gust Speed Precip Events Conditions
12:00 AM 57.2 °F 53.6 °F 88% 29.92 in 6.2 mi Variable 2.3 mph - N/A   Mostly Cloudy
1:00 AM 59.0 °F 50.0 °F 72% 29.89 in 6.2 mi East 6.9 mph - N/A   Mostly Cloudy
2:00 AM 59.0 °F 50.0 °F 72% 29.83 in 6.2 mi SSE 11.5 mph - N/A   Mostly Cloudy
3:00 AM 57.2 °F 50.0 °F 77% 29.83 in 6.2 mi SE 3.5 mph - N/A   Mostly Cloudy
4:00 AM 57.2 °F 50.0 °F 77% 29.80 in 6.2 mi Variable 3.5 mph - N/A   Mostly Cloudy
5:00 AM 57.2 °F 50.0 °F 77% 29.80 in 6.2 mi Variable 2.3 mph - N/A   Mostly Cloudy
5:30 AM 55.4 °F 50.0 °F 82% 29.80 in 6.2 mi SSW 4.6 mph - N/A   Mostly Cloudy
6:00 AM 55.4 °F 51.8 °F 88% 29.80 in 6.2 mi West 3.5 mph - N/A   Mostly Cloudy
6:30 AM 57.2 °F 51.8 °F 82% 29.80 in 6.2 mi Variable 2.3 mph - N/A   Mostly Cloudy
7:00 AM 57.2 °F 51.8 °F 82% 29.80 in 6.2 mi Variable 2.3 mph - N/A   Mostly Cloudy
7:30 AM 57.2 °F 50.0 °F 77% 29.80 in 6.2 mi Variable 2.3 mph - N/A   Mostly Cloudy
8:00 AM 57.2 °F 51.8 °F 82% 29.80 in 6.2 mi WNW 4.6 mph - N/A   Mostly Cloudy
8:30 AM 59.0 °F 51.8 °F 77% 29.80 in 6.2 mi Variable 1.2 mph - N/A   Mostly Cloudy
9:00 AM 60.8 °F 50.0 °F 68% 29.80 in 6.2 mi Variable 1.2 mph - N/A   Scattered Clouds
9:30 AM 64.4 °F 53.6 °F 68% 29.80 in 6.2 mi Variable 2.3 mph - N/A   Scattered Clouds
10:00 AM 64.4 °F 51.8 °F 64% 29.80 in 6.2 mi SSW 3.5 mph - N/A   Mostly Cloudy
10:30 AM 62.6 °F 51.8 °F 68% 29.80 in 6.2 mi South 5.8 mph - N/A   Mostly Cloudy
11:00 AM 64.4 °F 51.8 °F 64% 29.80 in 6.2 mi South 4.6 mph - N/A   Mostly Cloudy
11:30 AM 66.2 °F 55.4 °F 68% 29.80 in 6.2 mi SSE 3.5 mph - N/A   Mostly Cloudy
12:00 PM 62.6 °F 57.2 °F 82% 29.80 in 6.2 mi SSE 8.1 mph - N/A Rain Light Rain
12:30 PM 62.6 °F 55.4 °F 77% 29.80 in 6.2 mi ESE 8.1 mph - N/A   Mostly Cloudy
1:00 PM 66.2 °F 55.4 °F 68% 29.77 in 6.2 mi SE 9.2 mph - N/A   Mostly Cloudy
1:30 PM 64.4 °F 55.4 °F 73% 29.77 in 6.2 mi SE 6.9 mph - N/A   Mostly Cloudy
2:00 PM 66.2 °F 55.4 °F 68% 29.77 in 6.2 mi SSE 3.5 mph - N/A Rain Light Rain
2:30 PM 64.4 °F 55.4 °F 73% 29.77 in 6.2 mi SSE 3.5 mph - N/A Rain Light Rain
3:00 PM 64.4 °F 57.2 °F 77% 29.74 in 6.2 mi ESE 4.6 mph - N/A Rain Light Rain
3:30 PM 68.0 °F 59.0 °F 73% 29.71 in 6.2 mi SE 5.8 mph - N/A   Scattered Clouds
4:00 PM 66.2 °F 55.4 °F 68% 29.71 in 6.2 mi South 5.8 mph - N/A   Scattered Clouds
4:30 PM 66.2 °F 57.2 °F 73% 29.71 in 6.2 mi West 4.6 mph - N/A   Mostly Cloudy
5:00 PM 66.2 °F 55.4 °F 68% 29.71 in 6.2 mi Variable 2.3 mph - N/A   Scattered Clouds
5:30 PM 66.2 °F 55.4 °F 68% 29.71 in 6.2 mi Variable 1.2 mph - N/A   Mostly Cloudy
6:00 PM 66.2 °F 55.4 °F 68% 29.68 in 6.2 mi Variable 1.2 mph - N/A   Mostly Cloudy
6:30 PM 64.4 °F 53.6 °F 68% 29.65 in 6.2 mi Variable 1.2 mph - N/A   Scattered Clouds
7:00 PM 64.4 °F 55.4 °F 73% 29.65 in 6.2 mi Variable 1.2 mph - N/A   Scattered Clouds
7:30 PM 62.6 °F 55.4 °F 77% 29.71 in 6.2 mi West 5.8 mph - N/A Rain Light Rain
8:00 PM 59.0 °F 55.4 °F 88% 29.71 in 5.0 mi NW 5.8 mph - N/A Rain Light Rain
8:30 PM 59.0 °F 55.4 °F 88% 29.71 in 4.3 mi WNW 3.5 mph - N/A Rain Rain
9:00 PM 57.2 °F 55.4 °F 94% 29.71 in 5.0 mi Variable 2.3 mph - N/A Rain Light Rain
9:30 PM 57.2 °F 55.4 °F 94% 29.68 in 4.3 mi Variable 2.3 mph - N/A Rain Light Rain
10:00 PM 55.4 °F 55.4 °F 100% 29.68 in 2.5 mi ESE 3.5 mph - N/A Rain Rain
10:30 PM 55.4 °F 55.4 °F 100% 29.68 in 4.3 mi Variable 2.3 mph - N/A Rain Light Rain
11:00 PM 55.4 °F 55.4 °F 100% 29.68 in 4.3 mi Variable 1.2 mph - N/A Rain Rain